• In Hungary
  • List of Countries
  • For 7 days
  • Water Temperature
  • Satellite Maps
  • Weather Map
  • News
  • Weather Widgets
  • user-avatar
    Login

    Hourly Weather Hmelevka

    Today, 23 October, Tuesday

    Time Temperature Precipitation Wind Pressure Humidity
    00:00 +5°C° 0.6 mm 4 mps 742 mmHg 88%
    01:00 +5°C° 0.6 mm 4 mps 741 mmHg 90%
    02:00 +5°C° 0 mm 4 mps 741 mmHg 90%
    03:00 +5°C° 0 mm 4 mps 740 mmHg 91%
    04:00 +4°C° 0 mm 3 mps 740 mmHg 93%
    05:00 +3°C° 0 mm 3 mps 740 mmHg 95%
    06:00 +3°C° 0 mm 3 mps 740 mmHg 95%
    07:00 +3°C° 0 mm 3 mps 739 mmHg 95%
    08:00 +2°C° 0 mm 3 mps 739 mmHg 94%
    09:00 +3°C° 0 mm 3 mps 738 mmHg 87%
    10:00 +5°C° 0 mm 3 mps 737 mmHg 79%
    11:00 +6°C° 0 mm 4 mps 737 mmHg 71%
    12:00 +6°C° 0 mm 4 mps 736 mmHg 69%
    13:00 +6°C° 0 mm 5 mps 734 mmHg 68%
    14:00 +5°C° 0 mm 6 mps 733 mmHg 66%
    15:00 +5°C° 0.2 mm 6 mps 732 mmHg 69%
    16:00 +4°C° 0.2 mm 6 mps 731 mmHg 72%
    17:00 +4°C° 0.2 mm 6 mps 730 mmHg 74%
    18:00 +3°C° 0.1 mm 6 mps 728 mmHg 76%
    19:00 +3°C° 0.1 mm 6 mps 727 mmHg 78%
    20:00 +3°C° 0.1 mm 7 mps 725 mmHg 79%
    21:00 +3°C° 0.3 mm 7 mps 724 mmHg 81%
    22:00 +3°C° 0.3 mm 6 mps 723 mmHg 82%
    23:00 +3°C° 0.3 mm 6 mps 721 mmHg 83%

    Tomorrow, 24 October, Wednesday

    Time Temperature Precipitation Wind Pressure Humidity
    00:00 +3°C° 0.8 mm 6 mps 720 mmHg 85%
    01:00 +3°C° 0.8 mm 5 mps 719 mmHg 87%
    02:00 +3°C° 0.8 mm 5 mps 719 mmHg 89%
    03:00 +3°C° 1.4 mm 5 mps 718 mmHg 90%
    04:00 +4°C° 1.4 mm 4 mps 718 mmHg 91%
    05:00 +4°C° 1.4 mm 4 mps 717 mmHg 92%
    06:00 +4°C° 0.7 mm 4 mps 717 mmHg 90%
    07:00 +3°C° 0.7 mm 5 mps 717 mmHg 88%
    08:00 +3°C° 0.7 mm 5 mps 717 mmHg 86%
    09:00 +3°C° 0.1 mm 5 mps 717 mmHg 83%
    10:00 +3°C° 0.1 mm 5 mps 718 mmHg 80%
    11:00 +5°C° 0.1 mm 5 mps 718 mmHg 77%
    12:00 +5°C° 0 mm 5 mps 718 mmHg 76%
    13:00 +5°C° 0 mm 5 mps 718 mmHg 74%
    14:00 +5°C° 0 mm 4 mps 719 mmHg 73%
    15:00 +5°C° 0 mm 4 mps 719 mmHg 76%
    16:00 +4°C° 0 mm 3 mps 719 mmHg 80%
    17:00 +3°C° 0 mm 3 mps 720 mmHg 84%
    18:00 +4°C° 0.1 mm 3 mps 720 mmHg 85%
    19:00 +4°C° 0.1 mm 4 mps 721 mmHg 86%
    20:00 +3°C° 0.1 mm 5 mps 721 mmHg 87%
    21:00 +3°C° 0.4 mm 5 mps 722 mmHg 86%
    22:00 +3°C° 0.4 mm 6 mps 722 mmHg 86%
    23:00 +3°C° 0.4 mm 6 mps 723 mmHg 85%

    Day after tomorrow, 25 October, Thursday

    Time Temperature Precipitation Wind Pressure Humidity
    00:00 +3°C° 0.3 mm 6 mps 724 mmHg 84%
    01:00 +3°C° 0.3 mm 7 mps 724 mmHg 83%
    02:00 +2°C° 0.3 mm 7 mps 725 mmHg 83%
    03:00 +2°C° 0.1 mm 7 mps 725 mmHg 82%
    04:00 +2°C° 0.1 mm 7 mps 726 mmHg 81%
    05:00 0°C° 0.1 mm 7 mps 726 mmHg 81%
    06:00 0°C° 0 mm 7 mps 727 mmHg 80%
    07:00 +1°C° 0 mm 6 mps 727 mmHg 80%
    08:00 +1°C° 0 mm 6 mps 727 mmHg 79%
    09:00 +1°C° 0 mm 6 mps 728 mmHg 78%
    10:00 +2°C° 0 mm 6 mps 728 mmHg 76%
    11:00 +2°C° 0 mm 5 mps 728 mmHg 75%
    12:00 +3°C° 0 mm 5 mps 728 mmHg 72%
    13:00 +3°C° 0 mm 5 mps 728 mmHg 69%
    14:00 +5°C° 0 mm 5 mps 728 mmHg 66%
    15:00 +4°C° 0 mm 4 mps 728 mmHg 70%
    16:00 +3°C° 0 mm 3 mps 728 mmHg 75%
    17:00 +3°C° 0 mm 2 mps 728 mmHg 79%
    18:00 +3°C° 0 mm 2 mps 728 mmHg 82%
    19:00 +2°C° 0 mm 2 mps 728 mmHg 85%
    20:00 +2°C° 0 mm 2 mps 728 mmHg 88%
    21:00 +1°C° 0 mm 2 mps 728 mmHg 90%
    22:00 +1°C° 0 mm 2 mps 729 mmHg 91%
    23:00 +1°C° 0 mm 2 mps 729 mmHg 92%

    26 October, Friday

    Time Temperature Precipitation Wind Pressure Humidity
    00:00 +1°C° 0 mm 2 mps 729 mmHg 93%
    01:00 -1°C° 0 mm 2 mps 730 mmHg 93%
    02:00 -1°C° 0 mm 2 mps 730 mmHg 94%
    03:00 -1°C° 0 mm 2 mps 730 mmHg 94%
    04:00 -1°C° 0 mm 2 mps 730 mmHg 94%
    05:00 -1°C° 0 mm 2 mps 730 mmHg 95%
    06:00 -1°C° 0 mm 3 mps 731 mmHg 94%
    07:00 0°C° 0 mm 3 mps 731 mmHg 92%
    08:00 0°C° 0 mm 3 mps 731 mmHg 91%
    09:00 +1°C° 0 mm 3 mps 731 mmHg 87%
    10:00 +1°C° 0 mm 4 mps 732 mmHg 82%
    11:00 +3°C° 0 mm 4 mps 732 mmHg 78%
    12:00 +4°C° 0 mm 4 mps 732 mmHg 75%
    13:00 +4°C° 0 mm 4 mps 733 mmHg 73%
    14:00 +4°C° 0 mm 4 mps 733 mmHg 70%
    15:00 +4°C° 0 mm 4 mps 733 mmHg 73%
    16:00 +3°C° 0 mm 3 mps 734 mmHg 76%
    17:00 +2°C° 0 mm 3 mps 734 mmHg 80%
    18:00 +2°C° 0 mm 3 mps 734 mmHg 82%
    19:00 +1°C° 0 mm 3 mps 735 mmHg 85%
    20:00 +1°C° 0 mm 3 mps 735 mmHg 88%
    21:00 0°C° 0 mm 3 mps 735 mmHg 90%
    22:00 0°C° 0 mm 3 mps 735 mmHg 91%
    23:00 0°C° 0 mm 3 mps 735 mmHg 93%

    27 October, Saturday

    Time Temperature Precipitation Wind Pressure Humidity
    00:00 0°C° 0 mm 3 mps 735 mmHg 92%
    01:00 0°C° 0 mm 4 mps 735 mmHg 91%
    02:00 0°C° 0 mm 4 mps 735 mmHg 90%
    03:00 +1°C° 0.1 mm 5 mps 735 mmHg 89%
    04:00 +1°C° 0.1 mm 6 mps 734 mmHg 88%
    05:00 +2°C° 0.1 mm 6 mps 733 mmHg 87%
    06:00 +2°C° 0.2 mm 7 mps 733 mmHg 86%
    07:00 +3°C° 0.2 mm 7 mps 732 mmHg 85%
    08:00 +2°C° 0.2 mm 8 mps 732 mmHg 83%
    09:00 +4°C° 0.3 mm 8 mps 731 mmHg 83%
    10:00 +4°C° 0.3 mm 8 mps 731 mmHg 83%
    11:00 +5°C° 0.3 mm 8 mps 731 mmHg 82%
    12:00 +5°C° 0.5 mm 8 mps 731 mmHg 82%
    13:00 +5°C° 0.5 mm 8 mps 730 mmHg 81%
    14:00 +6°C° 0.5 mm 7 mps 730 mmHg 81%
    15:00 +5°C° 0.3 mm 7 mps 730 mmHg 80%
    16:00 +5°C° 0.3 mm 6 mps 730 mmHg 79%
    17:00 +4°C° 0.3 mm 6 mps 730 mmHg 78%
    18:00 +4°C° 0 mm 6 mps 731 mmHg 78%
    19:00 +4°C° 0 mm 6 mps 731 mmHg 77%
    20:00 +3°C° 0 mm 6 mps 731 mmHg 77%
    21:00 +3°C° 0 mm 6 mps 732 mmHg 78%
    22:00 +3°C° 0 mm 6 mps 733 mmHg 80%
    23:00 +2°C° 0 mm 6 mps 734 mmHg 82%

    28 October, Sunday

    Time Temperature Precipitation Wind Pressure Humidity
    00:00 +2°C° 0 mm 5 mps 735 mmHg 82%
    01:00 +1°C° 0 mm 4 mps 736 mmHg 82%
    02:00 0°C° 0 mm 4 mps 737 mmHg 82%
    03:00 0°C° 0 mm 3 mps 737 mmHg 85%
    04:00 -1°C° 0 mm 3 mps 738 mmHg 88%
    05:00 -1°C° 0 mm 2 mps 739 mmHg 91%
    06:00 -1°C° 0 mm 2 mps 739 mmHg 91%
    07:00 -1°C° 0 mm 2 mps 740 mmHg 91%
    08:00 -1°C° 0 mm 2 mps 741 mmHg 91%
    09:00 +1°C° 0 mm 2 mps 741 mmHg 84%
    10:00 +2°C° 0 mm 2 mps 742 mmHg 77%
    11:00 +3°C° 0 mm 1 mps 742 mmHg 70%
    12:00 +4°C° 0 mm 1 mps 743 mmHg 67%
    13:00 +4°C° 0 mm 1 mps 743 mmHg 64%
    14:00 +4°C° 0 mm 1 mps 743 mmHg 62%
    15:00 +4°C° 0 mm 1 mps 744 mmHg 65%
    16:00 +3°C° 0 mm 1 mps 744 mmHg 68%
    17:00 +3°C° 0 mm 1 mps 744 mmHg 72%
    18:00 +2°C° 0 mm 2 mps 744 mmHg 73%
    19:00 +1°C° 0 mm 2 mps 745 mmHg 74%
    20:00 +1°C° 0 mm 2 mps 745 mmHg 75%
    21:00 0°C° 0 mm 3 mps 745 mmHg 75%
    22:00 0°C° 0 mm 3 mps 745 mmHg 75%
    23:00 0°C° 0 mm 3 mps 745 mmHg 75%

    29 October, Monday

    Time Temperature Precipitation Wind Pressure Humidity
    00:00 -1°C° 0.1 mm 4 mps 745 mmHg 76%
    01:00 -1°C° 0.1 mm 5 mps 745 mmHg 76%
    02:00 -1°C° 0.1 mm 5 mps 744 mmHg 77%
    03:00 -1°C° 0.4 mm 5 mps 744 mmHg 79%
    04:00 -2°C° 0.4 mm 6 mps 744 mmHg 81%
    05:00 -2°C° 0.4 mm 6 mps 744 mmHg 84%
    06:00 -2°C° 0.9 mm 6 mps 743 mmHg 85%
    07:00 -2°C° 0.9 mm 6 mps 743 mmHg 87%
    08:00 -2°C° 0.9 mm 7 mps 743 mmHg 89%
    09:00 -2°C° 0.3 mm 7 mps 742 mmHg 89%
    10:00 -2°C° 0.3 mm 7 mps 742 mmHg 89%
    11:00 -2°C° 0.3 mm 7 mps 741 mmHg 89%
    12:00 -1°C° 0.1 mm 7 mps 741 mmHg 90%
    13:00 -1°C° 0.1 mm 6 mps 740 mmHg 91%
    14:00 -1°C° 0.1 mm 6 mps 739 mmHg 92%
    15:00 -1°C° 0.1 mm 6 mps 739 mmHg 93%
    16:00 +1°C° 0.1 mm 6 mps 739 mmHg 94%
    17:00 +1°C° 0.1 mm 6 mps 738 mmHg 95%
    18:00 +2°C° 0.1 mm 5 mps 738 mmHg 95%
    19:00 +2°C° 0.1 mm 5 mps 737 mmHg 96%
    20:00 +3°C° 0.1 mm 5 mps 737 mmHg 97%
    21:00 +5°C° 0.1 mm 5 mps 737 mmHg 97%
    22:00 +5°C° 0.1 mm 5 mps 736 mmHg 97%
    23:00 +6°C° 0.1 mm 5 mps 736 mmHg 97%
    Show more